Weather in Marshalskoye

Russia / Kaliningrad Oblast     54°52′33″N   20°44′03″E
temp.,
°C
wind,
m/s
gust,
m/s
humid.,
%
clouds,
%
prec.,
mm/h
press.,
hPa
HPBL,
m
12 april, mon
mon1223:00+9sse71079100 0.0 101688
02:00+9sse71078100 0.0 101575
05:00+9sse71080100 0.0 101586
08:00+8sse71085100 0.0 101594
11:00+9sse5788100 0.1 101677
14:00+4nw7997100 0.2 1017204
17:00+4nw91094100 1.3 1019477
20:00+3wnw91197100 2.4 1021539
13 april, tue
tue1323:00+3wnw61092100 1.5 1022610
02:00+4w7108598 1.6 1022341
05:00+4wnw61082100 0.0 1023284
08:00+4wnw6882100 0.0 1025299
11:00+4wnw6782100 0.0 1026353
14:00+4wnw6779100 0.0 1026400
17:00+4wnw5780100 0.0 1025404
20:00+4wnw3686100 0.0 1025370
14 april, wed
wed1423:00+4w3686100 0.0 1024278
02:00+4w4684100 0.0 1023278
05:00+4w4585100 0.0 1022207
08:00+4wnw448581 0.0 1022172
11:00+4nw4583100 0.0 1022215
14:00+4nnw5688100 0.0 1022276
17:00+4nnw71085100 0.0 1022365
20:00+4n101482100 0.0 1022375
15 april, thu
thu1523:00+4n91183100 0.0 1022246
02:00+4n81083100 0.0 1022308
05:00+4nne91181100 0.0 1022425
08:00+4nne91176100 0.0 1023415
11:00+4n91279100 0.0 1022763
14:00+5n81082100 0.3 1022325
17:00+5nne71184100 0.6 1021310
20:00+6n5883100 0.9 102198
16 april, fri
fri1623:00+6nne91375100 0.0 1021272
02:00+4nne81185100 0.4 1021358
05:00+4nne81190100 1.1 1020452
08:00+5ne71087100 1.3 1021387
11:00+5ne7990100 0.1 1022315
14:00+5ne6887100 0.2 1023232
17:00+6nne5890100 0.0 1023148
20:00+6ne5892100 0.1 1024131